Eufaula, AL

10:47 AM CDT on August 22, 2017 (GMT -0500)
Weedon

Weather History for KEUF - December, 2012

Change the Weather History Date:

Thursday, December 13, 2012

  Actual Average (KLSF) Record (KLSF)
Temperature  
Mean Temperature 57 °F -  
Max Temperature 70 °F 58 °F 77 °F (2015)
Min Temperature 44 °F 34 °F 19 °F (2010)
Degree Days  
Heating Degree Days 8    
Growing Degree Days 7 (Base 50)    
Moisture  
Dew Point 40 °F    
Average Humidity 62    
Maximum Humidity 81    
Minimum Humidity 33    
Precipitation  
Precipitation 0.00 in - - ()
Sea Level Pressure  
Sea Level Pressure 30.28 in    
Wind  
Wind Speed 3 mph (NE)    
Max Wind Speed 10 mph    
Max Gust Speed 17 mph    
Visibility 10 miles    
Events Rain    
Averages and records for this station are not official NWS values.
T = Trace of Precipitation, MM = Missing Value Source: NWS Daily Summary

Daily Weather History Graph

Daily Weather History Graph

Search for Another Location

Airport or City:

Trip Planner

Search our weather history database for the weather conditions in past years. The results will help you decide how hot, cold, wet, or windy it might be!

Date:

Astronomy

Dec. 13, 2012 Rise Set
Actual Time 6:32 AM CST 4:37 PM CST
Civil Twilight 6:05 AM CST 5:04 PM CST
Nautical Twilight 5:35 AM CST 5:34 PM CST
Astronomical Twilight 5:05 AM CST 6:04 PM CST
Moon 6:41 AM CST (12/13) 5:17 PM CST (12/13)
Length of Visible Light 10h 58m
Length of Day
10h 05m
New Moon, 0% of the Moon is Illuminated
Dec 13
New Moon
Dec 19
First Quarter
Dec 28
Full
Jan 4
Last Quarter
Jan 11
New

Hourly Weather History & Observations

Time (CST) Temp. Dew Point Humidity Pressure Visibility Wind Dir Wind Speed Gust Speed Precip Events Conditions
12:58 AM 51.1 °F 42.1 °F 71% 30.22 in 10.0 mi Calm Calm - N/A   Overcast
1:58 AM 48.0 °F 41.0 °F 77% 30.24 in 10.0 mi NNW 3.5 mph - N/A   Overcast
2:58 AM 46.9 °F 39.9 °F 77% 30.23 in 10.0 mi Calm Calm - N/A   Mostly Cloudy
3:58 AM 45.0 °F 39.0 °F 80% 30.24 in 9.0 mi Calm Calm - N/A   Mostly Cloudy
4:58 AM 46.0 °F 39.9 °F 79% 30.26 in 9.0 mi Calm Calm - N/A   Overcast
5:58 AM 46.0 °F 39.9 °F 79% 30.28 in 9.0 mi Calm Calm - N/A   Overcast
6:58 AM 45.0 °F 39.0 °F 80% 30.29 in 6.0 mi Calm Calm - N/A   Haze
7:02 AM 44.6 °F 39.2 °F 81% 30.29 in 6.0 mi Calm Calm - N/A   Haze
7:58 AM 55.0 °F 42.1 °F 62% 30.31 in 10.0 mi NE 8.1 mph - N/A   Clear
8:19 AM 55.4 °F 41.0 °F 58% 30.32 in 10.0 mi NE 5.8 mph 17.3 mph N/A   Mostly Cloudy
8:58 AM 59.0 °F 42.1 °F 53% 30.32 in 10.0 mi East 10.4 mph - N/A   Overcast
9:23 AM 60.8 °F 42.8 °F 52% 30.33 in 10.0 mi ENE 8.1 mph - N/A   Scattered Clouds
9:58 AM 61.0 °F 41.0 °F 48% 30.32 in 10.0 mi Variable 6.9 mph - N/A   Partly Cloudy
10:58 AM 64.0 °F 39.9 °F 41% 30.31 in 10.0 mi Variable 6.9 mph - N/A   Clear
11:58 AM 64.9 °F 39.9 °F 40% 30.28 in 10.0 mi NE 5.8 mph - N/A   Clear
12:58 PM 69.1 °F 39.9 °F 35% 30.27 in 10.0 mi ENE 6.9 mph - N/A   Clear
1:58 PM 70.0 °F 39.9 °F 33% 30.25 in 10.0 mi ENE 8.1 mph - N/A   Clear
2:58 PM 69.1 °F 39.9 °F 35% 30.25 in 10.0 mi NNE 4.6 mph - N/A   Clear
3:58 PM 66.9 °F 39.0 °F 36% 30.25 in 10.0 mi NE 3.5 mph - N/A   Clear
4:58 PM 55.0 °F 41.0 °F 59% 30.25 in 10.0 mi Calm Calm - N/A   Clear
6:58 PM 46.9 °F 39.9 °F 77% 30.29 in 10.0 mi ENE 3.5 mph - N/A   Clear
7:58 PM 52.0 °F 42.1 °F 69% 30.31 in 10.0 mi East 4.6 mph - N/A   Clear
8:58 PM 48.0 °F 39.0 °F 71% 30.31 in 10.0 mi Calm Calm - N/A   Clear
9:58 PM 44.1 °F 37.9 °F 79% 30.31 in 10.0 mi Calm Calm - N/A   Clear
10:58 PM 46.9 °F 39.9 °F 77% 30.30 in 10.0 mi East 4.6 mph - 0.00 in Rain Light Rain
11:58 PM 45.0 °F 37.9 °F 76% 30.30 in 10.0 mi Calm Calm - 0.00 in   Clear